Location: Ar Ranvel
(48.3000°N, 4.8833°W)
Time: 14:47:01
(UTC+00:00)

ARIANE 5 R/B - Pass Details

Date: 16 June 2021
Orbit: 620 x 656 km, 98.1° (Epoch: 28 July)

Event Time Altitude Azimuth Distance (km) Brightness Sun altitude
Exits shadow 21:43:40 11° 170° (S) 1,968 4.6 -10.2°
Maximum altitude 21:47:56 78° 257° (WSW) 665 2.7 -10.6°
Drops below altitude 10° 21:52:27 10° 344° (NNW) 2,064 6.6 -11.0°
Sets 21:54:41 0° 346° (NNW) 2,984 7.6 -11.2°
